Probability
3 1 0 0 0 0 0 0 0 0 0 0 0 0 0 0 0 0 0 0 1 2 3 3 3 3 3 2 1 1 0 0 0 0 0 0 0 0 0 0 0 0 0
2 1 0 0 0 0 0 0 0 0 0 0 0 0 0 0 0 0 0 0 0 1 2 2 3 3 3 3 2 2 1 0 0 0 0 0 0 0 0 0 0 0 0
4 3 1 0 0 0 0 0 0 0 0 0 0 0 0 0 0 0 0 0 0 0 1 1 1 3 4 4 3 3 2 1 1 1 0 0 0 0 0 0 0 0 0
7 5 3 1 0 0 0 0 0 0 0 0 0 0 0 0 0 0 0 0 0 0 0 0 1 2 4 4 3 2 2 2 2 2 1 0 0 0 0 0 0 0 0
6 6 5 2 1 1 1 0 0 0 0 0 0 0 0 0 0 0 0 0 0 0 0 0 0 1 3 4 3 2 1 2 3 2 1 0 0 0 0 0 0 0 0
6 7 6 4 2 2 2 1 0 0 0 0 0 0 0 0 0 0 0 0 0 0 0 0 0 1 2 4 4 2 1 2 1 1 0 0 0 0 0 0 0 0 0
7 8 7 5 4 3 3 2 0 0 0 0 0 0 0 0 0 0 0 0 0 0 0 0 0 0 1 3 2 1 1 1 0 0 0 0 0 0 0 0 0 0 0
5 5 6 6 5 4 3 1 0 1 1 1 0 0 0 0 0 0 0 0 0 0 0 0 0 0 0 1 1 0 0 0 0 0 0 0 0 0 0 0 0 0 0
2 2 3 5 4 3 2 1 1 2 2 1 0 0 0 0 0 0 0 0 0 0 0 0 0 0 0 0 0 0 0 0 0 0 0 0 0 0 0 0 0 0 0
1 1 1 2 2 1 1 0 1 2 2 1 0 0 0 0 0 0 0 0 0 0 0 0 0 0 0 0 0 0 0 0 0 0 1 1 1 1 1 0 0 0 0
1 0 0 1 1 0 0 0 1 1 1 1 0 0 0 0 0 0 0 0 0 0 0 0 0 0 0 0 0 0 0 0 0 0 1 2 1 1 0 0 0 0 0
0 0 0 0 0 1 1 1 2 2 1 0 0 0 0 0 0 0 0 0 0 0 0 0 0 0 0 0 0 0 0 0 0 0 1 1 1 0 0 0 0 0 0
0 0 0 0 1 2 3 3 3 2 1 0 0 0 0 0 0 0 0 0 0 0 0 0 0 0 0 0 0 0 0 0 0 0 0 0 0 0 0 0 0 0 0
0 0 0 1 3 5 5 4 4 3 1 0 0 0 0 0 0 0 0 0 0 0 0 0 0 0 0 0 0 0 0 0 0 0 0 0 0 0 0 0 0 0 0
1 0 1 2 4 5 6 6 5 4 1 0 0 0 0 0 0 0 0 0 0 0 0 0 0 0 0 0 0 0 0 0 0 0 0 0 0 0 0 0 0 0 0
1 1 1 2 3 4 5 6 6 5 3 1 0 0 0 0 0 0 0 0 0 0 0 0 0 0 0 0 0 0 0 0 0 0 0 0 0 0 0 0 0 0 0
1 2 2 2 3 3 4 4 5 5 3 1 0 0 0 0 0 0 0 0 0 0 0 0 0 0 0 0 0 0 0 0 0 0 0 0 0 0 0 0 0 0 0
0 1 2 3 3 3 3 3 4 4 3 1 0 0 0 0 0 0 0 0 0 0 0 0 0 0 0 0 0 0 0 0 0 0 0 0 0 0 0 0 0 0 0
0 0 1 2 3 3 3 3 3 3 2 1 0 0 0 0 0 0 0 0 0 0 0 0 0 0 0 0 0 0 0 0 0 0 0 0 0 0 0 0 0 0 0
0 0 0 1 2 3 3 3 3 2 2 1 0 0 0 0 0 0 0 0 0 0 0 0 0 0 0 0 0 0 0 0 0 0 0 0 0 0 0 0 0 0 0
0 0 0 0 1 2 2 2 1 1 1 0 0 0 0 0 0 0 0 0 0 0 0 0 0 0 0 0 0 0 0 0 0 0 0 0 0 0 0 0 0 0 0
0 0 0 0 0 1 1 1 0 0 0 0 0 0 0 0 0 0 0 0 0 0 0 0 0 0 0 0 0 0 0 0 0 0 0 0 0 0 0 0 0 0 0
0 0 0 0 0 0 0 0 0 0 0 0 0 0 0 0 0 0 0 0 0 0 0 0 0 0 0 0 0 0 0 0 0 0 0 0 0 0 0 0 0 0 0
0 0 0 0 0 0 0 0 0 0 0 0 0 0 0 0 0 0 0 0 0 0 0 0 0 0 0 0 0 0 0 0 0 0 0 0 0 0 0 0 0 0 0
0 0 0 0 0 0 0 0 0 0 0 0 0 0 0 0 0 0 0 0 0 0 0 0 0 0 0 0 0 0 0 0 0 0 0 0 0 0 0 0 0 0 0
0 0 0 0 0 0 0 0 0 0 0 0 0 0 0 0 0 0 0 0 0 0 0 0 0 0 0 0 0 0 0 0 0 0 0 0 0 0 0 0 0 0 0
Wind_Speed
3 3 2 2 2 1 2 1 1 1 1 0 0 0 0 0 1 2 2 3 1 1 1 2 2 3 3 3 3 3 3 4 5 6 6 6 7 7 7 8 9 9 9
3 3 2 2 1 1 1 1 1 1 1 1 1 1 1 0 1 1 2 2 1 0 2 2 3 3 4 4 4 4 4 4 6 6 6 7 7 7 8 9 9 10 10
3 3 2 2 1 1 1 1 1 1 1 1 1 1 1 1 1 1 1 2 1 1 2 3 3 4 5 5 5 5 5 6 6 7 7 7 8 9 9 10 10 10 11
3 3 2 1 1 1 1 1 1 1 1 1 1 1 1 0 1 1 1 0 1 1 2 3 3 4 5 5 5 5 6 6 7 8 8 8 9 10 10 11 11 11 12
3 3 2 1 2 2 1 1 1 1 1 1 1 1 1 1 1 1 1 1 0 1 1 2 3 4 5 6 6 6 6 7 8 8 9 10 10 11 12 12 12 12 13
3 3 2 2 2 2 1 1 1 1 1 1 1 2 1 1 1 1 1 1 1 1 1 1 1 2 4 5 6 7 7 7 8 9 10 11 11 12 12 13 12 13 13
2 2 2 2 2 2 2 2 1 1 0 1 1 2 2 1 1 1 0 1 1 1 1 1 1 1 1 4 5 7 8 9 9 10 11 12 12 13 13 13 13 13 14
2 2 3 2 2 2 2 2 2 1 0 1 1 0 2 2 2 1 1 1 1 1 1 1 1 1 1 1 2 6 8 9 10 11 12 12 13 13 13 13 14 14 14
2 2 2 2 2 2 2 2 2 2 1 0 1 1 1 2 2 2 1 1 1 1 1 2 2 1 1 1 1 4 7 9 11 12 13 13 14 14 14 13 14 14 14
2 2 2 2 2 2 2 1 1 1 2 1 1 0 1 1 0 2 3 2 2 2 2 2 2 2 1 1 2 5 8 9 11 13 13 14 14 14 14 14 14 14 14
1 2 2 2 2 1 1 1 1 1 1 1 1 0 1 1 1 1 3 3 3 2 2 2 1 1 2 1 2 4 7 9 11 12 13 13 14 14 14 14 14 14 14
1 1 1 2 2 1 1 1 1 1 1 1 1 0 1 1 1 1 2 3 3 3 3 2 2 2 2 1 3 6 7 8 10 11 12 13 14 14 14 14 14 14 15
1 1 1 1 1 2 1 1 1 1 1 1 1 1 1 1 1 1 1 3 3 4 3 2 2 1 2 1 2 7 7 9 10 11 12 12 13 14 14 14 14 15 15
2 2 2 2 2 2 2 2 1 0 0 0 1 1 1 1 1 1 1 1 3 4 3 3 2 1 1 1 4 7 5 9 11 11 12 12 13 13 13 14 14 15 15
2 3 2 2 2 2 2 2 1 0 0 1 1 1 1 1 1 1 1 1 2 4 5 3 2 2 2 2 4 3 3 9 11 11 12 12 13 13 13 14 14 14 15
2 3 3 2 2 2 2 1 1 0 0 1 0 1 1 1 1 1 1 1 1 3 5 3 3 3 3 4 6 4 4 11 11 12 12 13 13 13 14 14 14 14 15
3 3 3 2 2 2 1 1 0 0 0 1 1 1 1 1 1 1 1 1 2 1 4 5 3 3 3 4 5 4 4 4 5 11 12 12 13 13 13 14 14 14 15
3 3 2 3 2 2 1 1 1 1 0 1 1 1 2 2 1 1 1 2 2 2 3 6 5 4 4 5 5 6 5 5 5 10 12 13 12 13 13 13 14 14 14
3 3 3 2 2 2 1 1 1 1 1 1 1 1 2 2 2 2 2 2 2 3 2 4 5 4 4 4 5 6 6 5 6 7 11 12 12 13 13 14 14 14 14
3 3 3 2 2 2 1 1 1 1 1 1 1 2 2 2 2 2 2 2 2 3 3 3 4 4 4 4 4 5 6 4 5 6 8 10 11 12 14 14 14 14 14
3 2 3 2 2 1 1 1 1 1 1 1 2 2 2 3 4 3 2 2 2 2 3 3 4 5 5 4 4 4 6 6 5 4 5 5 6 5 7 11 12 13 14
3 3 2 2 2 1 2 3 2 1 1 1 2 2 2 3 4 5 5 6 5 4 4 4 4 5 6 5 5 5 6 6 6 3 4 6 4 5 5 5 11 14 14
3 2 2 2 2 2 3 3 4 2 1 1 1 1 2 3 4 2 4 6 6 7 7 5 5 6 6 6 6 7 6 6 7 6 5 7 4 6 5 7 13 14 15
2 2 2 2 1 2 3 3 4 3 2 2 2 1 2 2 3 4 3 3 3 4 6 4 4 5 5 5 5 6 7 7 7 5 3 6 5 5 7 6 12 14 15
2 1 1 1 1 2 3 3 4 1 1 2 2 2 2 2 5 6 4 4 4 5 6 7 8 8 10 10 8 5 5 5 6 5 2 4 5 6 6 6 7 12 14
1 2 2 1 1 1 2 3 4 1 1 2 2 3 4 5 6 7 4 3 5 5 5 6 6 7 6 6 8 4 4 5 6 5 3 3 4 5 6 4 4 5 7
Wind_Direction
142 141 141 145 154 146 153 164 183 188 174 130 134 141 167 111 120 120 122 137 124 7 325 323 333 331 336 344 324 320 318 319 315 315 316 314 313 312 311 309 309 309 307
137 137 134 134 136 137 148 165 173 145 114 71 3 335 342 350 84 112 129 144 147 291 302 306 309 313 313 320 326 310 303 307 307 308 309 308 307 306 304 304 304 302 301
130 127 128 136 151 139 137 125 94 86 77 63 333 316 349 11 20 73 126 145 166 231 273 290 297 302 305 307 318 316 309 303 303 304 304 303 304 302 300 300 300 297 296
122 116 119 132 124 105 95 90 83 65 51 26 323 319 338 3 322 356 18 135 165 190 229 260 287 299 306 302 305 307 310 313 309 303 299 299 299 299 298 298 297 295 293
122 122 125 128 113 101 95 88 67 76 54 5 321 315 322 306 302 325 308 275 246 205 193 231 263 289 296 300 302 306 306 310 314 312 309 305 302 299 297 296 295 294 293
124 127 125 132 121 116 110 105 97 70 66 354 335 330 305 290 310 285 275 292 300 277 244 234 232 276 286 291 295 300 306 312 313 312 312 311 309 307 304 300 298 296 294
123 124 124 132 125 131 145 138 113 101 64 44 30 336 314 281 283 279 309 326 312 307 292 263 237 237 277 287 295 296 303 307 310 309 309 310 309 308 306 305 303 299 297
135 137 135 136 138 137 137 135 125 115 111 94 113 348 324 333 314 296 302 292 297 308 301 307 295 280 274 288 303 303 303 304 308 307 310 311 310 308 307 306 306 305 303
128 125 132 134 145 149 159 158 144 138 157 212 137 139 161 261 305 304 277 280 298 321 307 300 299 308 300 295 298 309 307 306 309 310 311 311 311 312 310 308 306 306 306
130 127 124 131 145 146 150 157 142 154 156 185 228 210 200 200 234 304 311 313 316 307 295 305 312 307 299 287 295 305 308 310 310 311 311 312 313 314 313 312 309 309 308
118 128 129 130 135 133 140 139 135 148 150 161 174 222 291 309 234 222 283 304 313 300 298 294 289 290 290 284 287 304 306 309 313 313 314 315 315 316 315 314 312 310 308
120 130 129 127 126 123 138 142 146 150 149 158 175 182 184 217 264 240 261 290 294 290 291 282 280 276 281 289 302 318 312 315 317 315 316 316 315 315 314 312 311 309 307
138 157 123 122 120 120 116 100 102 127 154 180 208 244 260 251 240 239 249 282 290 289 283 281 273 282 306 318 317 322 315 314 313 312 313 315 314 314 314 313 310 309 308
149 155 131 112 108 103 98 95 83 97 316 252 274 260 270 275 274 240 224 265 299 298 291 277 288 293 311 315 314 318 311 311 311 312 314 314 313 312 313 313 312 309 308
131 135 132 119 111 108 111 113 106 169 290 261 261 263 262 273 277 274 258 198 229 284 290 286 306 307 314 310 312 308 296 307 309 310 312 312 311 310 311 311 311 310 308
111 126 129 125 118 116 122 129 138 152 147 290 295 311 301 296 296 289 264 255 231 242 274 283 289 297 313 317 312 311 299 307 306 308 309 310 309 310 311 311 311 311 311
104 110 117 119 109 94 97 107 109 116 137 316 321 306 295 298 301 300 288 272 269 252 272 287 289 307 316 314 311 304 298 293 294 303 305 306 307 309 310 311 311 311 312
97 103 100 105 101 89 81 85 65 22 321 287 300 301 291 304 312 304 295 288 283 273 269 288 299 309 305 307 306 304 308 309 300 304 305 305 306 308 309 309 310 311 310
95 94 93 97 96 88 76 62 56 359 332 316 310 306 306 318 311 308 306 300 294 299 292 285 294 302 302 307 310 306 302 301 302 307 310 307 307 309 308 306 306 306 306
93 94 92 90 92 85 67 52 39 16 357 345 340 333 326 314 302 303 302 295 296 299 299 294 295 299 299 302 307 308 307 304 299 306 307 305 304 306 306 304 304 304 304
81 82 81 75 74 76 68 55 35 8 358 345 337 331 334 330 324 320 316 310 312 302 302 298 296 298 299 306 305 303 301 304 294 293 300 299 299 296 298 298 299 300 303
74 72 69 68 59 40 37 26 9 345 336 322 316 324 329 330 331 337 331 324 313 301 294 289 290 291 294 297 298 301 304 308 303 298 303 297 294 292 290 287 299 304 305
59 62 60 61 52 36 33 15 359 348 334 310 306 321 326 334 340 341 336 337 332 318 302 285 283 286 290 295 299 300 297 293 287 294 301 292 291 289 293 299 304 307 309
52 46 42 40 35 20 24 18 5 7 343 319 311 309 311 324 328 333 331 325 311 307 302 299 279 285 290 293 286 286 290 294 288 285 289 287 295 294 300 295 302 307 310
47 34 34 33 24 2 12 11 6 2 350 330 323 325 329 326 327 334 333 319 316 312 313 311 309 306 310 313 314 311 305 302 298 297 293 283 293 302 296 286 295 307 311
43 28 17 15 24 358 359 7 4 16 351 329 330 333 336 332 334 339 336 323 318 319 324 326 323 321 319 319 324 320 310 306 302 298 305 306 300 316 306 288 295 305 307